Regional Weather Roundup
Issued by NWS

Home | Current Version | Previous Version | Graphics & Text | Print | Product List | Glossary On
Versions: 1 2 3 4 5 6 7 8 9 10 11 12 13 14 15 16 17 18 19 20 21 22 23 24 25 26 27 28 29 30 31 32 33 34 35 36 37 38 39 40 41 42 43 44 45 46 47 48 49 50
000
ASUS45 KSLC 190310
RWRUT

UTAH REGIONAL WEATHER ROUNDUP
NATIONAL WEATHER SERVICE SALT LAKE CITY UT
800 PM MST THU DEC 18 2014

UTZ001>011-023>025-190400-

NORTHERN UTAH

CITY           SKY/WX    TMP DP  RH WIND       PRES   REMARKS
BRIGHAM CITY   CLEAR     35  29  81 CALM      30.18S
HILL AFB       PTCLDY    34  29  83 E7        30.17R WCI  28
LOGAN          CLEAR     31  27  85 VRB3      30.16S
OGDEN          CLEAR     33  30  88 S6        30.16S WCI  28
PROVO AIRPORT  NOT AVBL
SALT LAKE CITY PTCLDY    35  30  82 S5        30.17S WCI  31
VERNAL         CLOUDY    27  23  85 CALM      30.22R
WENDOVER       PTCLDY    30  23  74 CALM      30.18R
HEBER CITY     PTCLDY    28  27  93 SE3       30.17R
WEST JORDAN    CLEAR     34  30  86 CALM      30.18S

$$

UTZ012>022-026-027-190400-

SOUTHERN/CENTRAL UTAH

CITY           SKY/WX    TMP DP  RH WIND       PRES   REMARKS
BLANDING       CLEAR     29  28  96 NW6       30.24R WCI  23
BRYCE CANYON   CLEAR     15  13  91 W6        30.18R WCI   6
CEDAR CITY     CLEAR     31  24  75 SE7       30.17R WCI  24
DELTA          CLEAR     31  27  86 E5        30.18S WCI  26
MILFORD        CLEAR     30  24  78 CALM      30.17R
MOAB/CYNLANDS  MOCLDY    33  31  92 NW5       30.17R WCI  29
PRICE          CLOUDY    31  25  78 NE5       30.16R WCI  26
ST GEORGE      PTCLDY    45  34  65 S6        30.20S
KANAB          CLEAR     32  32 100 N3        30.23R

$$

REGIONAL REPORTS     COLORADO/ARIZONA

CITY           SKY/WX    TMP DP  RH WIND       PRES   REMARKS
CRAIG, CO      FOG       15  14  95 CALM      30.18R VSB 3/4
GRAND JUNCTION MOCLDY    31  29  92 NE5       30.17R WCI  26
RIFLE          CLOUDY    32  30  92 CALM      30.17R
MONTROSE       CLOUDY    33  31  92 CALM      30.19R
CORTEZ         CLEAR     30  27  88 E5        30.17R WCI  25
PAGE, AZ       CLEAR     40  31  70 SE3       30.17R
GRAND CANYON   MOCLDY    26  24  92 CALM      30.19R
KINGMAN        CLEAR     39  35  86 E8        30.21R WCI  33
FLAGSTAFF      CLEAR     24  22  91 CALM      30.18R FOG

$$

REGIONAL REPORTS    NEVADA/IDAHO/WYOMING

CITY           SKY/WX    TMP DP  RH WIND       PRES   REMARKS
LAS VEGAS, NV  CLEAR     51  38  60 S6        30.16R
ELY            CLEAR     25  21  85 SE6       30.18R WCI  18
ELKO           PTCLDY    31  28  89 CALM      30.15R
POCATELLO, ID  CLOUDY    37  29  72 S7        30.14R WCI  32
BURLEY         CLOUDY    34  28  79 S5        30.12R WCI  30
EVANSTON, WY   CLOUDY    24  21  88 SW8       30.14R WCI  15
ROCK SPRINGS   PTCLDY    22  16  78 SW9       30.12R WCI  12
KEMMERER       PTCLDY    27  21  80 W9        30.12S WCI  17

$$


USA.gov is the U.S. government's official web portal to all federal, state and local government web resources and services.